loading
|

THOR ABLESTAR DEB, 141

Orbit data source: Space-Track

THOR ABLESTAR DEB, 141 is space debris in LEO originally from a launch on Thu, 29 Jun 1961 UTC launched from the Air Force Eastern Test Range (AFETR). Debris objects in space refer to the collection of defunct objects orbiting the Earth. Examples of debris include non-operational satellites, rocket bodies, and fragments generated from explosions, collisions, or faulty payload assembly.

Loading next visibility...
Loading greatness...
THOR ABLESTAR DEB details
Identifier
141, 1961-015AB
Orbit
LEO
Last TLE update10 hours ago
Origin
Flag of USUSAF SSD (US)
ManufacturerUnknown
Mission statusUnknown
MissionUnknown
Bus & MotorUnknown
MassUnknown
Launch date (UTC)
1961-06-29 (63 years ago)
Launch vehicleUnknown
Launch site
Air Force Eastern Test Range (AFETR)
Object type
Payload
Rocket body
Debris
Radar Cross SectionMedium (>0.1 m² and <1 m²)

Expand to show TLE details & history

TLE from 10 hours ago
0 THOR ABLESTAR DEB
1 00141U 61015AB  24251.58996908  .00001567  00000-0  13636-2 0  9997
2 00141  66.5886 193.1183 0048079 115.2867 245.3202 13.88134861181901
Epoch: 2024-09-07T14:09Z
Definitive object data (Epoch: 2024-09-07T14:09:33.328Z)
Latitude0.00002°
Longitude-6.41653°
Altitude952.054 km
Speed7.369 km/s
True Right ascension12h 52m 28s
True Declination0° 00' 00"
Sunlit
Object was in daylight at TLE epoch
Predictive object data (real-time)
Latitude4.72827°
Longitude-5.43682°
Altitude948.484 km
Speed7.372 km/s
Apparent Right ascension10h 10m 01s
Apparent Declination-29° 21' 09"
Sunlit
Object is in daylight
Predictive observer data (real-time)
Local Sidereal Time16:43:21
Azimuth251.121° W
Elevation-24.293°
Doppler factor1
Orbital elements
Apogee968.748 km
Perigee898.44 km
Semi-major axis7,311.731 km
Eccentricity0.0048079
Inclination66.5886°
RAAN193.1183°
Arg. of periapsis115.2867°
True anomaly244.82084°
Mean anomaly245.3202°
Eccentric anomaly245.07039°
Mean motion3.47147 °/min
BSTAR0.0013636
Period103.7 mins
No data available

THOR ABLESTAR DEB Visibility forecast

Observer location: 39.9160978°, -105.1181434

THOR ABLESTAR DEB is not visible in the next 10 days
Span
Click to sort rows by Start time (UTC) header in descending order
Start Az.
Max El. time (UTC)
Max El. Az.
Max El.
End time (UTC)
End Az.